| time (UTC) | temp F | wind direction | speed MPH | gust MPH | rain 1hr in | rain 24hr in | rain mn in | humidity % | barometer mb |
| 20260903160016 | 56 | 0.0 | 2.0 | 0.00 | 0.25 | 0.05 | 94 | 1008.9 | |
| 20260903153015 | 54 | 0.0 | 1.0 | 0.00 | 0.25 | 0.05 | 94 | 1008.8 | |
| 20260903150020 | 54 | 0.0 | 0.0 | 0.00 | 0.25 | 0.05 | 94 | 1008.8 | |
| 20260903143016 | 54 | 0.0 | 0.0 | 0.00 | 0.25 | 0.05 | 94 | 1008.5 | |
| 20260903140016 | 53 | 0.0 | 0.0 | 0.01 | 0.25 | 0.05 | 95 | 1008.4 | |
| 20260903133015 | 53 | 0.0 | 0.0 | 0.03 | 0.25 | 0.05 | 94 | 1008.3 | |
| 20260903130022 | 53 | 0.0 | 0.0 | 0.03 | 0.24 | 0.04 | 94 | 1008.1 | |
| 20260903123022 | 53 | 0.0 | 0.0 | 0.01 | 0.22 | 0.02 | 94 | 1008.2 | |
| 20260903120017 | 53 | 0.0 | 0.0 | 0.00 | 0.21 | 0.01 | 94 | 1007.9 | |
| 20260903113017 | 53 | 0.0 | 0.0 | 0.00 | 0.21 | 0.01 | 94 | 1007.6 | |
| 20260903110017 | 53 | 0.0 | 0.0 | 0.00 | 0.21 | 0.01 | 94 | 1007.6 | |
| 20260903103022 | 53 | 0.0 | 0.0 | 0.01 | 0.21 | 0.01 | 95 | 1007.6 | |
| 20260903100018 | 53 | 0.0 | 0.0 | 0.01 | 0.21 | 0.01 | 94 | 1007.5 | |
| 20260903093017 | 53 | 0.0 | 0.0 | 0.00 | 0.20 | 0.00 | 95 | 1007.6 | |
| 20260903090022 | 52 | 0.0 | 0.0 | 0.00 | 0.20 | 0.00 | 94 | 1007.4 | |
| 20260903083017 | 52 | 0.0 | 0.0 | 0.00 | 0.20 | 0.00 | 95 | 1007.3 | |
| 20260903080017 | 52 | 0.0 | 0.0 | 0.00 | 0.20 | 0.00 | 94 | 1007.3 | |
| 20260903073022 | 52 | 0.0 | 0.0 | 0.00 | 0.20 | 0.00 | 94 | 1007.1 | |
| 20260903070016 | 52 | 0.0 | 0.0 | 0.00 | 0.20 | 0.20 | 94 | 1007.1 | |
| 20260903063021 | 53 | 0.0 | 0.0 | 0.00 | 0.20 | 0.20 | 94 | 1006.9 | |
| 20260903060016 | 54 | 0.0 | 0.0 | 0.00 | 0.20 | 0.20 | 94 | 1007.0 | |
| 20260903053015 | 54 | 0.0 | 0.0 | 0.00 | 0.20 | 0.20 | 93 | 1007.2 | |
| 20260903050015 | 55 | 0.0 | 0.0 | 0.00 | 0.20 | 0.20 | 93 | 1007.0 | |
| 20260903043015 | 55 | 0.0 | 0.0 | 0.00 | 0.20 | 0.20 | 93 | 1006.9 | |
| 20260903040019 | 56 | 0.0 | 0.0 | 0.00 | 0.20 | 0.20 | 93 | 1006.7 | |
| 20260903033017 | 55 | 0.0 | 0.0 | 0.00 | 0.20 | 0.20 | 92 | 1006.0 | |
| 20260903030022 | 56 | 0.0 | 1.0 | 0.00 | 0.20 | 0.20 | 91 | 1005.8 | |
| 20260903023022 | 57 | 0.0 | 1.0 | 0.00 | 0.20 | 0.20 | 89 | 1005.5 | |
| 20260903020017 | 60 | 0.0 | 2.0 | 0.00 | 0.20 | 0.20 | 87 | 1005.2 | |
| 20260903013022 | 60 | 0.0 | 4.0 | 0.01 | 0.20 | 0.20 | 89 | 1004.9 | |
| 20260903010017 | 60 | 0.0 | 1.0 | 0.02 | 0.20 | 0.20 | 92 | 1004.4 | |
| 20260903003017 | 60 | 0.0 | 5.0 | 0.01 | 0.19 | 0.19 | 92 | 1004.1 | |
| 20260903000017 | 60 | 0.0 | 0.0 | 0.03 | 0.18 | 0.18 | 92 | 1003.9 | |
| 20260902233022 | 60 | 0.0 | 0.0 | 0.08 | 0.18 | 0.18 | 91 | 1003.9 | |
| 20260902230017 | 60 | 0.0 | 1.0 | 0.08 | 0.15 | 0.15 | 90 | 1004.4 | |
| 20260902223016 | 60 | 0.0 | 1.0 | 0.07 | 0.10 | 0.10 | 89 | 1004.2 | |
| 20260902220021 | 61 | 0.0 | 1.0 | 0.07 | 0.07 | 0.07 | 88 | 1004.3 | |
| 20260902213016 | 62 | 0.0 | 1.0 | 0.03 | 0.03 | 0.03 | 85 | 1004.5 | |
| 20260902210017 | 65 | 0.0 | 3.0 | 0.00 | 0.00 | 0.00 | 79 | 1004.2 | |
| 20260902203021 | 66 | 0.0 | 1.0 | 0.00 | 0.00 | 0.00 | 80 | 1004.1 | |
| 20260902200016 | 65 | 0.0 | 4.0 | 0.00 | 0.00 | 0.00 | 81 | 1004.4 | |
| 20260902193021 | 69 | 0.0 | 4.0 | 0.00 | 0.00 | 0.00 | 64 | 1004.8 | |
| 20260902190021 | 69 | 0.0 | 2.0 | 0.00 | 0.00 | 0.00 | 61 | 1004.4 | |
| 20260902183024 | 66 | 0.0 | 1.0 | 0.00 | 0.00 | 0.00 | 67 | 1004.8 | |
| 20260902180021 | 66 | 0.0 | 2.0 | 0.00 | 0.00 | 0.00 | 69 | 1005.2 | |
| 20260902173021 | 66 | 0.0 | 1.0 | 0.00 | 0.00 | 0.00 | 69 | 1005.4 | |
| 20260902170017 | 65 | 0.0 | 1.0 | 0.00 | 0.00 | 0.00 | 73 | 1005.6 | |
| 20260902163015 | 65 | 0.0 | 1.0 | 0.00 | 0.00 | 0.00 | 75 | 1005.9 |